Location: Aufkirchen
(47.9603°N, 11.3653°E)
Time: 02:43:23
(UTC+01:00)

ISS - Visible Passes

Search period start: 24 November 2017 00:00
Search period end: 04 December 2017 00:00
Orbit: 402 x 407 km, 51.6° (Epoch: 24 November)

Date Brightness Start Highest point End Pass type
(mag) Time Alt. Az. Time Alt. Az. Time Alt. Az.
27 Nov -0.9 19:07:21 10° SW 19:07:51 13° SW 19:07:51 13° SW visible
28 Nov -2.3 18:15:29 10° SSW 18:17:50 24° SSE 18:17:50 24° SSE visible
29 Nov -1.7 17:24:05 10° S 17:26:03 15° SE 17:27:45 11° ESE visible
29 Nov -1.7 18:58:48 10° WSW 19:00:25 26° WSW 19:00:25 26° WSW visible
30 Nov -3.4 18:06:34 10° SW 18:09:45 48° SSE 18:10:15 43° ESE visible
01 Dec -2.5 17:14:34 10° SSW 17:17:28 29° SE 17:20:01 12° E visible
01 Dec -2.3 18:50:31 10° WSW 18:52:40 37° W 18:52:40 37° W visible
02 Dec -3.9 17:58:04 10° WSW 18:01:21 88° SE 18:02:23 41° ENE visible
02 Dec -0.3 19:34:53 10° WNW 19:35:02 11° WNW 19:35:02 11° WNW visible
03 Dec -3.5 17:05:44 10° SW 17:08:57 56° SSE 17:12:04 11° ENE visible
03 Dec -2.5 18:42:19 10° W 18:44:42 37° NW 18:44:42 37° NW visible
